User: anonymous   Login
Location: Unspecified
(0.0000°N, 0.0000°E)
Time: 08:36:06
(UTC+00:00)
Language:

LISHUI 1-01 - Orbit

View from above orbital plane
View from above orbital plane
View from above satellite
View from above satellite

Ground track
Ground track

The orbit data is extracted from the following two-line orbital elements,

1 41845U 16066E   17293.65996093  .00000154  00000-0  34723-4 0  9993
2 41845  98.7723 312.2671 0365332 235.7103 120.8979 14.37815768 49521
Epoch (UTC): 20 October 2017 15:50:20
Eccentricity: 0.0365332
inclination: 98.7723°
perigee height: 505 km
apogee height: 1027 km
right ascension of ascending node: 312.2671°
argument of perigee: 235.7103°
revolutions per day: 14.37815768
mean anomaly at epoch: 120.8979°
orbit number at epoch: 4952

The dashed part of the orbit path shows where the satellite is in the earth's shadow,  

DLR